Year,Month,Day,Hour,Minute,Value (Times are PST for temperature in C)
2016,03,31,00,00,11.20
2016,03,31,00,01,11.20
2016,03,31,00,02,11.10
2016,03,31,00,03,11.10
2016,03,31,00,04,11.10
2016,03,31,00,05,11.10
2016,03,31,00,06,11.10
2016,03,31,00,07,11.10
2016,03,31,00,08,11.10
2016,03,31,00,09,11.10
2016,03,31,00,10,11.10
2016,03,31,00,11,11.10
2016,03,31,00,12,11.10
2016,03,31,00,13,11.10
2016,03,31,00,14,11.10
2016,03,31,00,15,11.10
2016,03,31,00,16,11.10
2016,03,31,00,17,11.10
2016,03,31,00,18,11.10
2016,03,31,00,19,11.10
2016,03,31,00,20,11.10
2016,03,31,00,21,11.10
2016,03,31,00,22,11.10
2016,03,31,00,23,11.10
2016,03,31,00,24,11.00
2016,03,31,00,25,11.00
2016,03,31,00,26,11.00
2016,03,31,00,27,11.00
2016,03,31,00,28,11.00
2016,03,31,00,29,11.00
2016,03,31,00,30,10.90
2016,03,31,00,31,10.90
2016,03,31,00,32,10.90
2016,03,31,00,33,10.90
2016,03,31,00,34,10.80
2016,03,31,00,35,10.80
2016,03,31,00,36,10.80
2016,03,31,00,37,10.80
2016,03,31,00,38,10.80
2016,03,31,00,39,10.80
2016,03,31,00,40,10.80
2016,03,31,00,41,10.90
2016,03,31,00,42,10.90
2016,03,31,00,43,10.80
2016,03,31,00,44,10.80
2016,03,31,00,45,10.80
2016,03,31,00,46,10.80
2016,03,31,00,47,10.80
2016,03,31,00,48,10.80
2016,03,31,00,49,10.80
2016,03,31,00,50,10.80
2016,03,31,00,51,10.80
2016,03,31,00,52,10.80
2016,03,31,00,53,10.80
2016,03,31,00,54,10.80
2016,03,31,00,55,10.80
2016,03,31,00,56,10.80
2016,03,31,00,57,10.70
2016,03,31,00,58,10.70
2016,03,31,00,59,10.70
2016,03,31,01,00,10.70
2016,03,31,01,01,10.70
2016,03,31,01,02,10.70
2016,03,31,01,03,10.70
2016,03,31,01,04,10.70
2016,03,31,01,05,10.60
2016,03,31,01,06,10.60
2016,03,31,01,07,10.60
2016,03,31,01,08,10.60
2016,03,31,01,09,10.50
2016,03,31,01,10,10.50
2016,03,31,01,11,10.50
2016,03,31,01,12,10.60
2016,03,31,01,13,10.60
2016,03,31,01,14,10.60
2016,03,31,01,15,10.70
2016,03,31,01,16,10.70
2016,03,31,01,17,10.70
2016,03,31,01,18,10.70
2016,03,31,01,19,10.70
2016,03,31,01,20,10.70
2016,03,31,01,21,10.70
2016,03,31,01,22,10.70
2016,03,31,01,23,10.70
2016,03,31,01,24,10.60
2016,03,31,01,25,10.60
2016,03,31,01,26,10.60
2016,03,31,01,27,10.60
2016,03,31,01,28,10.60
2016,03,31,01,29,10.60
2016,03,31,01,30,10.60
2016,03,31,01,31,10.60
2016,03,31,01,32,10.50
2016,03,31,01,33,10.50
2016,03,31,01,34,10.50
2016,03,31,01,35,10.40
2016,03,31,01,36,10.40
2016,03,31,01,37,10.40
2016,03,31,01,38,10.40
2016,03,31,01,39,10.30
2016,03,31,01,40,10.40
2016,03,31,01,41,10.40
2016,03,31,01,42,10.40
2016,03,31,01,43,10.40
2016,03,31,01,44,10.40
2016,03,31,01,45,10.40
2016,03,31,01,46,10.40
2016,03,31,01,47,10.40
2016,03,31,01,48,10.40
2016,03,31,01,49,10.40
2016,03,31,01,50,10.40
2016,03,31,01,51,10.40
2016,03,31,01,52,10.40
2016,03,31,01,53,10.30
2016,03,31,01,54,10.30
2016,03,31,01,55,10.30
2016,03,31,01,56,10.30
2016,03,31,01,57,10.30
2016,03,31,01,58,10.30
2016,03,31,01,59,10.30
2016,03,31,02,00,10.20
2016,03,31,02,01,10.20
2016,03,31,02,02,10.30
2016,03,31,02,03,10.30
2016,03,31,02,04,10.30
2016,03,31,02,05,10.30
2016,03,31,02,06,10.30
2016,03,31,02,07,10.30
2016,03,31,02,08,10.30
2016,03,31,02,09,10.30
2016,03,31,02,10,10.40
2016,03,31,02,11,10.40
2016,03,31,02,12,10.40
2016,03,31,02,13,10.40
2016,03,31,02,14,10.40
2016,03,31,02,15,10.40
2016,03,31,02,16,10.40
2016,03,31,02,17,10.40
2016,03,31,02,18,10.40
2016,03,31,02,19,10.40
2016,03,31,02,20,10.40
2016,03,31,02,21,10.40
2016,03,31,02,22,10.40
2016,03,31,02,23,10.40
2016,03,31,02,24,10.40
2016,03,31,02,25,10.30
2016,03,31,02,26,10.30
2016,03,31,02,27,10.30
2016,03,31,02,28,10.30
2016,03,31,02,29,10.30
2016,03,31,02,30,10.30
2016,03,31,02,31,10.30
2016,03,31,02,32,10.30
2016,03,31,02,33,10.30
2016,03,31,02,34,10.30
2016,03,31,02,35,10.30
2016,03,31,02,36,10.30
2016,03,31,02,37,10.30
2016,03,31,02,38,10.30
2016,03,31,02,39,10.30
2016,03,31,02,40,10.30
2016,03,31,02,41,10.20
2016,03,31,02,42,10.20
2016,03,31,02,43,10.20
2016,03,31,02,44,10.20
2016,03,31,02,45,10.20
2016,03,31,02,46,10.20
2016,03,31,02,47,10.10
2016,03,31,02,48,10.10
2016,03,31,02,49,10.10
2016,03,31,02,50,10.00
2016,03,31,02,51,10.00
2016,03,31,02,52,9.90
2016,03,31,02,53,9.90
2016,03,31,02,54,9.90
2016,03,31,02,55,9.90
2016,03,31,02,56,9.80
2016,03,31,02,57,9.80
2016,03,31,02,58,9.80
2016,03,31,02,59,9.80
2016,03,31,03,00,9.70
2016,03,31,03,01,9.70
2016,03,31,03,02,9.70
2016,03,31,03,03,9.70
2016,03,31,03,04,9.60
2016,03,31,03,05,9.60
2016,03,31,03,06,9.60
2016,03,31,03,07,9.60
2016,03,31,03,08,9.60
2016,03,31,03,09,9.60
2016,03,31,03,10,9.60
2016,03,31,03,11,9.60
2016,03,31,03,12,9.60
2016,03,31,03,13,9.60
2016,03,31,03,14,9.50
2016,03,31,03,15,9.50
2016,03,31,03,16,9.60
2016,03,31,03,17,9.60
2016,03,31,03,18,9.60
2016,03,31,03,19,9.60
2016,03,31,03,20,9.60
2016,03,31,03,21,9.60
2016,03,31,03,22,9.60
2016,03,31,03,23,9.60
2016,03,31,03,24,9.60
2016,03,31,03,25,9.60
2016,03,31,03,26,9.60
2016,03,31,03,27,9.60
2016,03,31,03,28,9.60
2016,03,31,03,29,9.60
2016,03,31,03,30,9.60
2016,03,31,03,31,9.60
2016,03,31,03,32,9.60
2016,03,31,03,33,9.60
2016,03,31,03,34,9.60
2016,03,31,03,35,9.60
2016,03,31,03,36,9.60
2016,03,31,03,37,9.60
2016,03,31,03,38,9.60
2016,03,31,03,39,9.60
2016,03,31,03,40,9.60
2016,03,31,03,41,9.60
2016,03,31,03,42,9.60
2016,03,31,03,43,9.60
2016,03,31,03,44,9.60
2016,03,31,03,45,9.60
2016,03,31,03,46,9.60
2016,03,31,03,47,9.60
2016,03,31,03,48,9.60
2016,03,31,03,49,9.70
2016,03,31,03,50,9.70
2016,03,31,03,51,9.60
2016,03,31,03,52,9.70
2016,03,31,03,53,9.70
2016,03,31,03,54,9.70
2016,03,31,03,55,9.70
2016,03,31,03,56,9.60
2016,03,31,03,57,9.60
2016,03,31,03,58,9.60
2016,03,31,03,59,9.60
2016,03,31,04,00,9.60
2016,03,31,04,01,9.60
2016,03,31,04,02,9.60
2016,03,31,04,03,9.60
2016,03,31,04,04,9.60
2016,03,31,04,05,9.50
2016,03,31,04,06,9.50
2016,03,31,04,07,9.50
2016,03,31,04,08,9.40
2016,03,31,04,09,9.40
2016,03,31,04,10,9.30
2016,03,31,04,11,9.30
2016,03,31,04,12,9.30
2016,03,31,04,13,9.20
2016,03,31,04,14,9.20
2016,03,31,04,15,9.20
2016,03,31,04,16,9.10
2016,03,31,04,17,9.10
2016,03,31,04,18,9.10
2016,03,31,04,19,9.10
2016,03,31,04,20,9.10
2016,03,31,04,21,9.10
2016,03,31,04,22,9.10
2016,03,31,04,23,9.10
2016,03,31,04,24,9.10
2016,03,31,04,25,9.10
2016,03,31,04,26,9.10
2016,03,31,04,27,9.10
2016,03,31,04,28,9.10
2016,03,31,04,29,9.10
2016,03,31,04,30,9.10
2016,03,31,04,31,9.10
2016,03,31,04,32,9.00
2016,03,31,04,33,9.00
2016,03,31,04,34,9.00
2016,03,31,04,35,8.90
2016,03,31,04,36,8.90
2016,03,31,04,37,8.90
2016,03,31,04,38,8.90
2016,03,31,04,39,9.00
2016,03,31,04,40,9.00
2016,03,31,04,41,9.00
2016,03,31,04,42,9.00
2016,03,31,04,43,9.00
2016,03,31,04,44,9.00
2016,03,31,04,45,9.00
2016,03,31,04,46,9.00
2016,03,31,04,47,9.00
2016,03,31,04,48,9.00
2016,03,31,04,49,9.00
2016,03,31,04,50,9.00
2016,03,31,04,51,9.00
2016,03,31,04,52,9.00
2016,03,31,04,53,9.00
2016,03,31,04,54,8.90
2016,03,31,04,55,8.90
2016,03,31,04,56,8.90
2016,03,31,04,57,8.90
2016,03,31,04,58,8.90
2016,03,31,04,59,8.90
2016,03,31,05,00,8.90
2016,03,31,05,01,8.90
2016,03,31,05,02,8.90
2016,03,31,05,03,8.90
2016,03,31,05,04,8.90
2016,03,31,05,05,8.90
2016,03,31,05,06,8.80
2016,03,31,05,07,8.80
2016,03,31,05,08,8.80
2016,03,31,05,09,8.80
2016,03,31,05,10,8.80
2016,03,31,05,11,8.80
2016,03,31,05,12,8.80
2016,03,31,05,13,8.80
2016,03,31,05,14,8.80
2016,03,31,05,15,8.80
2016,03,31,05,16,8.80
2016,03,31,05,17,8.80
2016,03,31,05,18,8.80
2016,03,31,05,19,8.80
2016,03,31,05,20,8.80
2016,03,31,05,21,8.80
2016,03,31,05,22,8.80
2016,03,31,05,23,8.80
2016,03,31,05,24,8.80
2016,03,31,05,25,8.80
2016,03,31,05,26,8.80
2016,03,31,05,27,8.80
2016,03,31,05,28,8.80
2016,03,31,05,29,8.70
2016,03,31,05,30,8.70
2016,03,31,05,31,8.70
2016,03,31,05,32,8.70
2016,03,31,05,33,8.70
2016,03,31,05,34,8.70
2016,03,31,05,35,8.80
2016,03,31,05,36,8.80
2016,03,31,05,37,8.80
2016,03,31,05,38,8.80
2016,03,31,05,39,8.80
2016,03,31,05,40,8.80
2016,03,31,05,41,8.80
2016,03,31,05,42,8.80
2016,03,31,05,43,8.90
2016,03,31,05,44,8.90
2016,03,31,05,45,8.90
2016,03,31,05,46,8.90
2016,03,31,05,47,8.90
2016,03,31,05,48,8.80
2016,03,31,05,49,8.80
2016,03,31,05,50,8.80
2016,03,31,05,51,8.80
2016,03,31,05,52,8.80
2016,03,31,05,53,8.80
2016,03,31,05,54,8.80
2016,03,31,05,55,8.80
2016,03,31,05,56,8.80
2016,03,31,05,57,8.80
2016,03,31,05,58,8.80
2016,03,31,05,59,8.80
2016,03,31,06,00,8.80
2016,03,31,06,01,8.80
2016,03,31,06,02,8.80
2016,03,31,06,03,8.70
2016,03,31,06,04,8.70
2016,03,31,06,05,8.70
2016,03,31,06,06,8.70
2016,03,31,06,07,8.70
2016,03,31,06,08,8.70
2016,03,31,06,09,8.70
2016,03,31,06,10,8.70
2016,03,31,06,11,8.60
2016,03,31,06,12,8.60
2016,03,31,06,13,8.60
2016,03,31,06,14,8.60
2016,03,31,06,15,8.60
2016,03,31,06,16,8.50
2016,03,31,06,17,8.50
2016,03,31,06,18,8.60
2016,03,31,06,19,8.60
2016,03,31,06,20,8.60
2016,03,31,06,21,8.50
2016,03,31,06,22,8.60
2016,03,31,06,23,8.60
2016,03,31,06,24,8.60
2016,03,31,06,25,8.60
2016,03,31,06,26,8.60
2016,03,31,06,27,8.70
2016,03,31,06,28,8.70
2016,03,31,06,29,8.70
2016,03,31,06,30,8.70
2016,03,31,06,31,8.70
2016,03,31,06,32,8.70
2016,03,31,06,33,8.70
2016,03,31,06,34,8.70
2016,03,31,06,35,8.80
2016,03,31,06,36,8.90
2016,03,31,06,37,8.90
2016,03,31,06,38,8.90
2016,03,31,06,39,9.00
2016,03,31,06,40,9.00
2016,03,31,06,41,9.10
2016,03,31,06,42,9.10
2016,03,31,06,43,9.10
2016,03,31,06,44,9.20
2016,03,31,06,45,9.20
2016,03,31,06,46,9.20
2016,03,31,06,47,9.20
2016,03,31,06,48,9.20
2016,03,31,06,49,9.30
2016,03,31,06,50,9.30
2016,03,31,06,51,9.20
2016,03,31,06,52,9.20
2016,03,31,06,53,9.10
2016,03,31,06,54,9.10
2016,03,31,06,55,9.00
2016,03,31,06,56,8.90
2016,03,31,06,57,8.90
2016,03,31,06,58,8.90
2016,03,31,06,59,8.80
2016,03,31,07,00,8.80
2016,03,31,07,01,8.80
2016,03,31,07,02,8.80
2016,03,31,07,03,8.80
2016,03,31,07,04,8.70
2016,03,31,07,05,8.70
2016,03,31,07,06,8.70
2016,03,31,07,07,8.70
2016,03,31,07,08,8.70
2016,03,31,07,09,8.60
2016,03,31,07,10,8.60
2016,03,31,07,11,8.60
2016,03,31,07,12,8.50
2016,03,31,07,13,8.50
2016,03,31,07,14,8.40
2016,03,31,07,15,8.40
2016,03,31,07,16,8.40
2016,03,31,07,17,8.40
2016,03,31,07,18,8.40
2016,03,31,07,19,8.30
2016,03,31,07,20,8.30
2016,03,31,07,21,8.30
2016,03,31,07,22,8.30
2016,03,31,07,23,8.30
2016,03,31,07,24,8.30
2016,03,31,07,25,8.30
2016,03,31,07,26,8.30
2016,03,31,07,27,8.40
2016,03,31,07,28,8.40
2016,03,31,07,29,8.40
2016,03,31,07,30,8.40
2016,03,31,07,31,8.40
2016,03,31,07,32,8.40
2016,03,31,07,33,8.50
2016,03,31,07,34,8.50
2016,03,31,07,35,8.50
2016,03,31,07,36,8.60
2016,03,31,07,37,8.60
2016,03,31,07,38,8.60
2016,03,31,07,39,8.70
2016,03,31,07,40,8.70
2016,03,31,07,41,8.70
2016,03,31,07,42,8.80
2016,03,31,07,43,8.80
2016,03,31,07,44,8.80
2016,03,31,07,45,8.80
2016,03,31,07,46,8.80
2016,03,31,07,47,8.90
2016,03,31,07,48,8.90
2016,03,31,07,49,8.90
2016,03,31,07,50,8.90
2016,03,31,07,51,8.90
2016,03,31,07,52,8.90
2016,03,31,07,53,8.90
2016,03,31,07,54,8.90
2016,03,31,07,55,8.90
2016,03,31,07,56,8.90
2016,03,31,07,57,8.90
2016,03,31,07,58,9.00
2016,03,31,07,59,9.00
2016,03,31,08,00,9.00
2016,03,31,08,01,9.00
2016,03,31,08,02,9.00
2016,03,31,08,03,9.00
2016,03,31,08,04,9.00
2016,03,31,08,05,9.10
2016,03,31,08,06,9.10
2016,03,31,08,07,9.10
2016,03,31,08,08,9.10
2016,03,31,08,09,9.10
2016,03,31,08,10,9.20
2016,03,31,08,11,9.20
2016,03,31,08,12,9.20
2016,03,31,08,13,9.30
2016,03,31,08,14,9.30
2016,03,31,08,15,9.30
2016,03,31,08,16,9.30
2016,03,31,08,17,9.30
2016,03,31,08,18,9.40
2016,03,31,08,19,9.40
2016,03,31,08,20,9.40
2016,03,31,08,21,9.50
2016,03,31,08,22,9.50
2016,03,31,08,23,9.60
2016,03,31,08,24,9.60
2016,03,31,08,25,9.60
2016,03,31,08,26,9.60
2016,03,31,08,27,9.70
2016,03,31,08,28,9.70
2016,03,31,08,29,9.80
2016,03,31,08,30,9.80
2016,03,31,08,31,9.90
2016,03,31,08,32,10.00
2016,03,31,08,33,10.10
2016,03,31,08,34,10.20
2016,03,31,08,35,10.30
2016,03,31,08,36,10.30
2016,03,31,08,37,10.40
2016,03,31,08,38,10.50
2016,03,31,08,39,10.50
2016,03,31,08,40,10.60
2016,03,31,08,41,10.70
2016,03,31,08,42,10.70
2016,03,31,08,43,10.70
2016,03,31,08,44,10.80
2016,03,31,08,45,10.80
2016,03,31,08,46,10.90
2016,03,31,08,47,10.90
2016,03,31,08,48,10.90
2016,03,31,08,49,10.90
2016,03,31,08,50,11.00
2016,03,31,08,51,11.10
2016,03,31,08,52,11.10
2016,03,31,08,53,11.10
2016,03,31,08,54,11.20
2016,03,31,08,55,11.20
2016,03,31,08,56,11.20
2016,03,31,08,57,11.20
2016,03,31,08,58,11.20
2016,03,31,08,59,11.20
2016,03,31,09,00,11.30
2016,03,31,09,01,11.30
2016,03,31,09,02,11.30
2016,03,31,09,03,11.40
2016,03,31,09,04,11.40
2016,03,31,09,05,11.50
2016,03,31,09,06,11.50
2016,03,31,09,07,11.60
2016,03,31,09,08,11.60
2016,03,31,09,09,11.70
2016,03,31,09,10,11.80
2016,03,31,09,11,11.80
2016,03,31,09,12,11.80
2016,03,31,09,13,11.80
2016,03,31,09,14,11.90
2016,03,31,09,15,11.90
2016,03,31,09,16,11.90
2016,03,31,09,17,11.90
2016,03,31,09,18,12.00
2016,03,31,09,19,12.10
2016,03,31,09,20,12.10
2016,03,31,09,21,12.20
2016,03,31,09,22,12.30
2016,03,31,09,23,12.40
2016,03,31,09,24,12.50
2016,03,31,09,25,12.50
2016,03,31,09,26,12.50
2016,03,31,09,27,12.50
2016,03,31,09,28,12.60
2016,03,31,09,29,12.60
2016,03,31,09,30,12.70
2016,03,31,09,31,12.70
2016,03,31,09,32,12.70
2016,03,31,09,33,12.80
2016,03,31,09,34,12.80
2016,03,31,09,35,12.90
2016,03,31,09,36,12.90
2016,03,31,09,37,12.90
2016,03,31,09,38,12.90
2016,03,31,09,39,12.90
2016,03,31,09,40,12.90
2016,03,31,09,41,12.80
2016,03,31,09,42,12.80
2016,03,31,09,43,12.80
2016,03,31,09,44,12.70
2016,03,31,09,45,12.70
2016,03,31,09,46,12.60
2016,03,31,09,47,12.60
2016,03,31,09,48,12.60
2016,03,31,09,49,12.60
2016,03,31,09,50,12.60
2016,03,31,09,51,12.60
2016,03,31,09,52,12.60
2016,03,31,09,53,12.60
2016,03,31,09,54,12.60
2016,03,31,09,55,12.60
2016,03,31,09,56,12.50
2016,03,31,09,57,12.50
2016,03,31,09,58,12.50
2016,03,31,09,59,12.60
2016,03,31,10,00,12.60
2016,03,31,10,01,12.70
2016,03,31,10,02,12.70
2016,03,31,10,03,12.70
2016,03,31,10,04,12.70
2016,03,31,10,05,12.70
2016,03,31,10,06,12.70
2016,03,31,10,07,12.70
2016,03,31,10,08,12.70
2016,03,31,10,09,12.80
2016,03,31,10,10,12.80
2016,03,31,10,11,12.80
2016,03,31,10,12,12.80
2016,03,31,10,13,12.80
2016,03,31,10,14,12.80
2016,03,31,10,15,12.90
2016,03,31,10,16,13.00
2016,03,31,10,17,13.10
2016,03,31,10,18,13.10
2016,03,31,10,19,13.20
2016,03,31,10,20,13.20
2016,03,31,10,21,13.30
2016,03,31,10,22,13.30
2016,03,31,10,23,13.30
2016,03,31,10,24,13.40
2016,03,31,10,25,13.40
2016,03,31,10,26,13.50
2016,03,31,10,27,13.50
2016,03,31,10,28,13.60
2016,03,31,10,29,13.60
2016,03,31,10,30,13.60
2016,03,31,10,31,13.60
2016,03,31,10,32,13.70
2016,03,31,10,33,13.70
2016,03,31,10,34,13.70
2016,03,31,10,35,13.60
2016,03,31,10,36,13.60
2016,03,31,10,37,13.60
2016,03,31,10,38,13.50
2016,03,31,10,39,13.50
2016,03,31,10,40,13.50
2016,03,31,10,41,13.50
2016,03,31,10,42,13.50
2016,03,31,10,43,13.60
2016,03,31,10,44,13.60
2016,03,31,10,45,13.70
2016,03,31,10,46,13.80
2016,03,31,10,47,13.80
2016,03,31,10,48,13.80
2016,03,31,10,49,13.90
2016,03,31,10,50,14.00
2016,03,31,10,51,14.00
2016,03,31,10,52,14.10
2016,03,31,10,53,14.00
2016,03,31,10,54,14.00
2016,03,31,10,55,14.00
2016,03,31,10,56,13.90
2016,03,31,10,57,13.90
2016,03,31,10,58,13.90
2016,03,31,10,59,13.80
2016,03,31,11,00,13.80
2016,03,31,11,01,13.90
2016,03,31,11,02,13.90
2016,03,31,11,03,13.90
2016,03,31,11,04,13.90
2016,03,31,11,05,14.00
2016,03,31,11,06,14.00
2016,03,31,11,07,14.10
2016,03,31,11,08,14.10
2016,03,31,11,09,14.10
2016,03,31,11,10,14.20
2016,03,31,11,11,14.20
2016,03,31,11,12,14.20
2016,03,31,11,13,14.20
2016,03,31,11,14,14.20
2016,03,31,11,15,14.20
2016,03,31,11,16,14.20
2016,03,31,11,17,14.20
2016,03,31,11,18,14.10
2016,03,31,11,19,14.10
2016,03,31,11,20,14.10
2016,03,31,11,21,14.00
2016,03,31,11,22,13.90
2016,03,31,11,23,13.90
2016,03,31,11,24,13.80
2016,03,31,11,25,13.80
2016,03,31,11,26,13.80
2016,03,31,11,27,13.80
2016,03,31,11,28,13.80
2016,03,31,11,29,13.80
2016,03,31,11,30,13.80
2016,03,31,11,31,13.80
2016,03,31,11,32,13.80
2016,03,31,11,33,13.90
2016,03,31,11,34,13.90
2016,03,31,11,35,14.00
2016,03,31,11,36,14.10
2016,03,31,11,37,14.20
2016,03,31,11,38,14.20
2016,03,31,11,39,14.30
2016,03,31,11,40,14.40
2016,03,31,11,41,14.40
2016,03,31,11,42,14.50
2016,03,31,11,43,14.50
2016,03,31,11,44,14.70
2016,03,31,11,45,14.80
2016,03,31,11,46,15.00
2016,03,31,11,47,15.00
2016,03,31,11,48,15.00
2016,03,31,11,49,15.10
2016,03,31,11,50,15.10
2016,03,31,11,51,15.10
2016,03,31,11,52,15.00
2016,03,31,11,53,15.00
2016,03,31,11,54,15.00
2016,03,31,11,55,15.00
2016,03,31,11,56,15.00
2016,03,31,11,57,15.00
2016,03,31,11,58,15.00
2016,03,31,11,59,15.00
2016,03,31,12,00,15.00
2016,03,31,12,01,15.00
2016,03,31,12,02,15.00
2016,03,31,12,03,14.90
2016,03,31,12,04,14.80
2016,03,31,12,05,14.80
2016,03,31,12,06,14.80
2016,03,31,12,07,14.80
2016,03,31,12,08,14.80
2016,03,31,12,09,14.90
2016,03,31,12,10,15.00
2016,03,31,12,11,15.00
2016,03,31,12,12,15.00
2016,03,31,12,13,15.00
2016,03,31,12,14,15.00
2016,03,31,12,15,15.00
2016,03,31,12,16,15.00
2016,03,31,12,17,15.00
2016,03,31,12,18,15.00
2016,03,31,12,19,15.00
2016,03,31,12,20,15.00
2016,03,31,12,21,15.00
2016,03,31,12,22,15.00
2016,03,31,12,23,15.00
2016,03,31,12,24,14.90
2016,03,31,12,25,14.80
2016,03,31,12,26,14.80
2016,03,31,12,27,14.70
2016,03,31,12,28,14.60
2016,03,31,12,29,14.50
2016,03,31,12,30,14.50
2016,03,31,12,31,14.50
2016,03,31,12,32,14.50
2016,03,31,12,33,14.70
2016,03,31,12,34,14.80
2016,03,31,12,35,15.00
2016,03,31,12,36,15.10
2016,03,31,12,37,15.30
2016,03,31,12,38,15.40
2016,03,31,12,39,15.50
2016,03,31,12,40,15.60
2016,03,31,12,41,15.60
2016,03,31,12,42,15.60
2016,03,31,12,43,15.50
2016,03,31,12,44,15.40
2016,03,31,12,45,15.40
2016,03,31,12,46,15.40
2016,03,31,12,47,15.30
2016,03,31,12,48,15.30
2016,03,31,12,49,15.40
2016,03,31,12,50,15.40
2016,03,31,12,51,15.40
2016,03,31,12,52,15.50
2016,03,31,12,53,15.60
2016,03,31,12,54,15.60
2016,03,31,12,55,15.60
2016,03,31,12,56,15.50
2016,03,31,12,57,15.50
2016,03,31,12,58,15.50
2016,03,31,12,59,15.40
2016,03,31,13,00,15.40
2016,03,31,13,01,15.40
2016,03,31,13,02,15.40
2016,03,31,13,03,15.40
2016,03,31,13,04,15.40
2016,03,31,13,05,15.40
2016,03,31,13,06,15.30
2016,03,31,13,07,15.30
2016,03,31,13,08,15.40
2016,03,31,13,09,15.30
2016,03,31,13,10,15.40
2016,03,31,13,11,15.30
2016,03,31,13,12,15.30
2016,03,31,13,13,15.20
2016,03,31,13,14,15.20
2016,03,31,13,15,15.30
2016,03,31,13,16,15.30
2016,03,31,13,17,15.30
2016,03,31,13,18,15.30
2016,03,31,13,19,15.30
2016,03,31,13,20,15.30
2016,03,31,13,21,15.30
2016,03,31,13,22,15.30
2016,03,31,13,23,15.30
2016,03,31,13,24,15.30
2016,03,31,13,25,15.30
2016,03,31,13,26,15.40
2016,03,31,13,27,15.50
2016,03,31,13,28,15.70
2016,03,31,13,29,15.80
2016,03,31,13,30,15.90
2016,03,31,13,31,16.00
2016,03,31,13,32,16.10
2016,03,31,13,33,16.20
2016,03,31,13,34,16.10
2016,03,31,13,35,16.10
2016,03,31,13,36,16.10
2016,03,31,13,37,16.10
2016,03,31,13,38,16.10
2016,03,31,13,39,16.10
2016,03,31,13,40,16.20
2016,03,31,13,41,16.20
2016,03,31,13,42,16.20
2016,03,31,13,43,16.30
2016,03,31,13,44,16.30
2016,03,31,13,45,16.30
2016,03,31,13,46,16.30
2016,03,31,13,47,16.20
2016,03,31,13,48,16.20
2016,03,31,13,49,16.20
2016,03,31,13,50,16.10
2016,03,31,13,51,16.10
2016,03,31,13,52,16.10
2016,03,31,13,53,16.10
2016,03,31,13,54,16.10
2016,03,31,13,55,16.10
2016,03,31,13,56,16.10
2016,03,31,13,57,16.20
2016,03,31,13,58,16.20
2016,03,31,13,59,16.20
2016,03,31,14,00,16.20
2016,03,31,14,01,16.20
2016,03,31,14,02,16.20
2016,03,31,14,03,16.30
2016,03,31,14,04,16.30
2016,03,31,14,05,16.30
2016,03,31,14,06,16.30
2016,03,31,14,07,16.30
2016,03,31,14,08,16.20
2016,03,31,14,09,16.20
2016,03,31,14,10,16.30
2016,03,31,14,11,16.30
2016,03,31,14,12,16.40
2016,03,31,14,13,16.40
2016,03,31,14,14,16.40
2016,03,31,14,15,16.40
2016,03,31,14,16,16.40
2016,03,31,14,17,16.40
2016,03,31,14,18,16.40
2016,03,31,14,19,16.40
2016,03,31,14,20,16.30
2016,03,31,14,21,16.30
2016,03,31,14,22,16.30
2016,03,31,14,23,16.40
2016,03,31,14,24,16.40
2016,03,31,14,25,16.40
2016,03,31,14,26,16.50
2016,03,31,14,27,16.60
2016,03,31,14,28,16.60
2016,03,31,14,29,16.70
2016,03,31,14,30,16.80
2016,03,31,14,31,16.90
2016,03,31,14,32,17.00
2016,03,31,14,33,17.00
2016,03,31,14,34,17.10
2016,03,31,14,35,17.10
2016,03,31,14,36,17.10
2016,03,31,14,37,17.20
2016,03,31,14,38,17.20
2016,03,31,14,39,17.10
2016,03,31,14,40,17.10
2016,03,31,14,41,17.10
2016,03,31,14,42,17.20
2016,03,31,14,43,17.10
2016,03,31,14,44,17.10
2016,03,31,14,45,17.10
2016,03,31,14,46,17.10
2016,03,31,14,47,17.10
2016,03,31,14,48,17.10
2016,03,31,14,49,17.10
2016,03,31,14,50,17.10
2016,03,31,14,51,17.00
2016,03,31,14,52,17.00
2016,03,31,14,53,17.00
2016,03,31,14,54,16.90
2016,03,31,14,55,16.90
2016,03,31,14,56,17.00
2016,03,31,14,57,17.00
2016,03,31,14,58,17.10
2016,03,31,14,59,17.20
2016,03,31,15,00,17.20
2016,03,31,15,01,17.20
2016,03,31,15,02,17.20
2016,03,31,15,03,17.30
2016,03,31,15,04,17.40
2016,03,31,15,05,17.40
2016,03,31,15,06,17.40
2016,03,31,15,07,17.50
2016,03,31,15,08,17.50
2016,03,31,15,09,17.60
2016,03,31,15,10,17.70
2016,03,31,15,11,17.70
2016,03,31,15,12,17.70
2016,03,31,15,13,17.70
2016,03,31,15,14,17.70
2016,03,31,15,15,17.70
2016,03,31,15,16,17.70
2016,03,31,15,17,17.70
2016,03,31,15,18,17.70
2016,03,31,15,19,17.70
2016,03,31,15,20,17.70
2016,03,31,15,21,17.70
2016,03,31,15,22,17.70
2016,03,31,15,23,17.70
2016,03,31,15,24,17.70
2016,03,31,15,25,17.60
2016,03,31,15,26,17.60
2016,03,31,15,27,17.60
2016,03,31,15,28,17.50
2016,03,31,15,29,17.50
2016,03,31,15,30,17.60
2016,03,31,15,31,17.60
2016,03,31,15,32,17.60
2016,03,31,15,33,17.60
2016,03,31,15,34,17.60
2016,03,31,15,35,17.60
2016,03,31,15,36,17.60
2016,03,31,15,37,17.60
2016,03,31,15,38,17.60
2016,03,31,15,39,17.60
2016,03,31,15,40,17.50
2016,03,31,15,41,17.40
2016,03,31,15,42,17.40
2016,03,31,15,43,17.40
2016,03,31,15,44,17.30
2016,03,31,15,45,17.30
2016,03,31,15,46,17.30
2016,03,31,15,47,17.20
2016,03,31,15,48,17.20
2016,03,31,15,49,17.10
2016,03,31,15,50,17.10
2016,03,31,15,51,17.10
2016,03,31,15,52,17.00
2016,03,31,15,53,17.00
2016,03,31,15,54,17.10
2016,03,31,15,55,17.10
2016,03,31,15,56,17.10
2016,03,31,15,57,17.10
2016,03,31,15,58,17.10
2016,03,31,15,59,17.10
2016,03,31,16,00,17.10
2016,03,31,16,01,17.10
2016,03,31,16,02,17.10
2016,03,31,16,03,17.00
2016,03,31,16,04,17.00
2016,03,31,16,05,16.90
2016,03,31,16,06,16.80
2016,03,31,16,07,16.80
2016,03,31,16,08,16.80
2016,03,31,16,09,16.80
2016,03,31,16,10,16.70
2016,03,31,16,11,16.70
2016,03,31,16,12,16.70
2016,03,31,16,13,16.70
2016,03,31,16,14,16.70
2016,03,31,16,15,16.60
2016,03,31,16,16,16.60
2016,03,31,16,17,16.60
2016,03,31,16,18,16.60
2016,03,31,16,19,16.60
2016,03,31,16,20,16.60
2016,03,31,16,21,16.60
2016,03,31,16,22,16.60
2016,03,31,16,23,16.60
2016,03,31,16,24,16.60
2016,03,31,16,25,16.70
2016,03,31,16,26,16.80
2016,03,31,16,27,16.80
2016,03,31,16,28,16.90
2016,03,31,16,29,17.00
2016,03,31,16,30,17.00
2016,03,31,16,31,17.00
2016,03,31,16,32,17.10
2016,03,31,16,33,17.10
2016,03,31,16,34,17.20
2016,03,31,16,35,17.20
2016,03,31,16,36,17.30
2016,03,31,16,37,17.40
2016,03,31,16,38,17.40
2016,03,31,16,39,17.50
2016,03,31,16,40,17.60
2016,03,31,16,41,17.70
2016,03,31,16,42,17.80
2016,03,31,16,43,17.80
2016,03,31,16,44,17.90
2016,03,31,16,45,18.00
2016,03,31,16,46,18.10
2016,03,31,16,47,18.10
2016,03,31,16,48,18.10
2016,03,31,16,49,18.10
2016,03,31,16,50,18.20
2016,03,31,16,51,18.20
2016,03,31,16,52,18.20
2016,03,31,16,53,18.20
2016,03,31,16,54,18.10
2016,03,31,16,55,18.10
2016,03,31,16,56,18.00
2016,03,31,16,57,17.90
2016,03,31,16,58,17.80
2016,03,31,16,59,17.80
2016,03,31,17,00,17.90
2016,03,31,17,01,17.90
2016,03,31,17,02,18.00
2016,03,31,17,03,18.00
2016,03,31,17,04,18.10
2016,03,31,17,05,18.10
2016,03,31,17,06,18.20
2016,03,31,17,07,18.20
2016,03,31,17,08,18.20
2016,03,31,17,09,18.20
2016,03,31,17,10,18.20
2016,03,31,17,11,18.10
2016,03,31,17,12,17.90
2016,03,31,17,13,17.80
2016,03,31,17,14,17.80
2016,03,31,17,15,17.80
2016,03,31,17,16,17.70
2016,03,31,17,17,17.60
2016,03,31,17,18,17.60
2016,03,31,17,19,17.50
2016,03,31,17,20,17.40
2016,03,31,17,21,17.40
2016,03,31,17,22,17.30
2016,03,31,17,23,17.30
2016,03,31,17,24,17.20
2016,03,31,17,25,17.20
2016,03,31,17,26,17.20
2016,03,31,17,27,17.20
2016,03,31,17,28,17.10
2016,03,31,17,29,17.10
2016,03,31,17,30,17.10
2016,03,31,17,31,17.20
2016,03,31,17,32,17.20
2016,03,31,17,33,17.20
2016,03,31,17,34,17.20